Location: Widewater Village at Stafford
(38.4893°N, 77.3783°W)
Time: 10:17:08
(UTC+00:00)

N. Korean satellite - Visible Passes

Search period start: 08 December 2022 00:00
Search period end: 18 December 2022 00:00
Orbit: 421 x 452 km, 97.3° (Epoch: 07 December)

Date Brightness Start Highest point End Pass type
(mag) Time Alt. Az. Time Alt. Az. Time Alt. Az.
08 Dec 7.1 10:14:06 10° NNE 10:17:24 53° E 10:20:40 10° S visible
08 Dec 8.7 22:14:17 10° SSW 22:17:17 30° W 22:20:20 10° NW visible
09 Dec 9.5 09:36:10 10° ENE 09:38:10 15° E 09:40:09 10° SE visible
09 Dec 7.4 11:07:52 10° NNW 11:10:38 24° WNW 11:13:23 10° SW visible
10 Dec 6.2 10:28:16 10° NNE 10:31:39 89° E 10:34:57 10° SSW visible
10 Dec 9.5 22:29:01 10° SW 22:31:32 19° W 22:34:05 10° NW visible
11 Dec 8.8 09:49:40 10° NE 09:52:23 23° E 09:55:03 10° SSE visible
11 Dec 7.9 11:22:31 10° NNW 11:24:40 16° WNW 11:26:46 10° WSW visible
12 Dec 6.3 10:42:21 10° N 10:45:38 55° WNW 10:48:51 10° SSW visible
12 Dec 9.8 22:43:59 10° WSW 22:45:35 13° W 22:47:12 10° WNW visible
13 Dec 8.0 10:03:18 10° NNE 10:06:19 35° E 10:09:22 10° SSE visible
13 Dec 8.4 11:37:35 10° NW 11:38:25 11° WNW 11:39:15 10° W visible
14 Dec 9.9 09:26:21 10° E 09:26:44 10° E 09:27:07 10° E visible
14 Dec 6.9 10:58:10 25° NNW 10:59:21 34° WNW 11:02:21 10° SW visible
15 Dec 6.9 10:18:59 37° NE 10:20:01 57° E 10:23:15 10° S visible
15 Dec 8.9 22:16:47 10° SSW 22:19:44 28° W 22:22:43 10° NW visible
16 Dec 9.4 09:39:38 14° ENE 09:40:24 15° E 09:42:26 10° SE visible
16 Dec 7.5 11:13:00 22° WNW 11:13:00 22° WNW 11:15:27 10° SW visible
17 Dec 6.2 10:33:29 87° WSW 10:33:29 87° WSW 10:36:44 10° SSW visible
17 Dec 9.5 22:30:44 10° SW 22:33:12 19° W 22:35:40 10° NW visible
